Glasgow, MT

1:22 AM MDT on March 26, 2017 (GMT -0600)
Wokal-Glasgow International

Weather History for KGGW - November, 2013

Change the Weather History Date:

Monday, November 4, 2013

  Actual Average Record
Temperature  
Mean Temperature 24 °F 36 °F  
Max Temperature 34 °F 47 °F 76 °F (1917)
Min Temperature 14 °F 25 °F -4 °F (1935)
Degree Days  
Heating Degree Days 41 29  
Month to date heating degree days 119 114  
Since 1 July heating degree days 924 1038  
Cooling Degree Days 0 0  
Month to date cooling degree days 0 0  
Year to date cooling degree days 563 533  
Moisture  
Dew Point 15 °F    
Average Humidity 65    
Maximum Humidity 88    
Minimum Humidity 41    
Precipitation  
Precipitation 0.00 in 0.01 in 0.60 in (1895)
Month to date precipitation 0.02 0.05  
Year to date precipitation 14.68 10.91  
Snow  
Snow 0.00 in 0.10 in 4.00 in (1951)
Month to date snowfall 0.0 0.4  
Since 1 July snowfall 0.1 1.9  
Since 1 September snowfall 0.1 1.9  
Snow Depth 0.00 in    
Sea Level Pressure  
Sea Level Pressure 30.06 in    
Wind  
Wind Speed 16 mph (WNW)    
Max Wind Speed 29 mph    
Max Gust Speed 36 mph    
Visibility 10 miles    
Events      
T = Trace of Precipitation, MM = Missing Value Source: NWS Daily Summary

Daily Weather History Graph

Daily Weather History Graph

Search for Another Location

Airport or City:

Trip Planner

Search our weather history database for the weather conditions in past years. The results will help you decide how hot, cold, wet, or windy it might be!

Date:

Astronomy

Nov. 04, 2013 Rise Set
Actual Time 6:56 AM MST 4:42 PM MST
Civil Twilight 6:24 AM MST 5:15 PM MST
Nautical Twilight 5:46 AM MST 5:52 PM MST
Astronomical Twilight 5:10 AM MST 6:28 PM MST
Moon 8:15 AM MST (11/4) 5:43 PM MST (11/4)
Length of Visible Light 10h 51m
Length of Day
9h 45m
New Moon, 2% of the Moon is Illuminated
Nov 4
New Moon
Nov 9
First Quarter
Nov 17
Full
Nov 25
Last Quarter
Dec 2
New

Hourly Weather History & Observations

Time (MST) Temp. Windchill Dew Point Humidity Pressure Visibility Wind Dir Wind Speed Gust Speed Precip Events Conditions
12:53 AM 28.9 °F 15.1 °F 19.9 °F 69% 29.88 in 10.0 mi WNW 23.0 mph 28.8 mph N/A   Overcast
1:53 AM 28.9 °F 16.1 °F 19.9 °F 69% 29.91 in 10.0 mi WNW 19.6 mph 26.5 mph N/A   Overcast
2:53 AM 28.9 °F 16.5 °F 19.9 °F 69% 29.92 in 10.0 mi WNW 18.4 mph 26.5 mph N/A   Overcast
3:53 AM 28.0 °F 15.7 °F 19.0 °F 69% 29.94 in 10.0 mi WNW 17.3 mph 27.6 mph N/A   Overcast
4:53 AM 27.0 °F 13.2 °F 18.0 °F 69% 29.97 in 10.0 mi WNW 20.7 mph 32.2 mph N/A   Overcast
5:53 AM 25.0 °F 11.3 °F 17.1 °F 72% 29.99 in 10.0 mi WNW 18.4 mph - N/A   Mostly Cloudy
6:01 AM 24.8 °F 11.1 °F 17.6 °F 74% 29.90 in 10.0 mi West 18.4 mph - N/A   Scattered Clouds
6:53 AM 21.9 °F 8.7 °F 16.0 °F 78% 30.01 in 10.0 mi WNW 15.0 mph - N/A   Clear
7:53 AM 24.1 °F 12.5 °F 17.1 °F 75% 30.04 in 10.0 mi WNW 12.7 mph - N/A   Partly Cloudy
8:53 AM 24.1 °F 7.4 °F 14.0 °F 65% 30.06 in 10.0 mi WNW 27.6 mph 34.5 mph N/A   Clear
9:53 AM 25.0 °F 9.5 °F 15.1 °F 66% 30.06 in 10.0 mi WNW 24.2 mph 34.5 mph N/A   Scattered Clouds
10:13 AM 26.6 °F 11.7 °F 15.8 °F 64% 29.97 in 10.0 mi WNW 24.2 mph 29.9 mph N/A   Mostly Cloudy
10:53 AM 26.1 °F 11.6 °F 15.1 °F 63% 30.08 in 10.0 mi WNW 21.9 mph 29.9 mph N/A   Mostly Cloudy
11:32 AM 28.4 °F 14.7 °F 14.0 °F 55% 29.98 in 10.0 mi WNW 21.9 mph 31.1 mph N/A   Scattered Clouds
11:53 AM 30.9 °F 18.1 °F 12.9 °F 47% 30.05 in 10.0 mi WNW 21.9 mph 32.2 mph N/A   Partly Cloudy
12:53 PM 32.0 °F 19.5 °F 14.0 °F 48% 30.05 in 10.0 mi WNW 21.9 mph 32.2 mph N/A   Partly Cloudy
1:53 PM 33.1 °F 20.3 °F 12.9 °F 43% 30.05 in 10.0 mi WNW 24.2 mph 34.5 mph N/A   Clear
2:53 PM 33.1 °F 21.5 °F 12.0 °F 42% 30.06 in 10.0 mi NW 19.6 mph 29.9 mph N/A   Clear
3:53 PM 28.9 °F 14.8 °F 10.9 °F 47% 30.08 in 10.0 mi NW 24.2 mph 28.8 mph N/A   Clear
4:53 PM 26.1 °F 14.5 °F 10.9 °F 53% 30.11 in 10.0 mi NW 13.8 mph - N/A   Clear
5:53 PM 23.0 °F 11.7 °F 12.0 °F 63% 30.14 in 10.0 mi WNW 11.5 mph - N/A   Clear
6:53 PM 21.9 °F 11.0 °F 12.9 °F 68% 30.17 in 10.0 mi WNW 10.4 mph - N/A   Clear
7:53 PM 17.1 °F 6.6 °F 10.9 °F 77% 30.19 in 10.0 mi West 8.1 mph - N/A   Clear
8:53 PM 17.1 °F 10.0 °F 12.0 °F 81% 30.20 in 10.0 mi WNW 4.6 mph - N/A   Clear
9:53 PM 16.0 °F - 12.0 °F 84% 30.20 in 10.0 mi Calm Calm - N/A   Clear
10:53 PM 16.0 °F 8.8 °F 12.0 °F 84% 30.21 in 10.0 mi WNW 4.6 mph - N/A   Clear
11:53 PM 14.0 °F 5.1 °F 10.0 °F 84% 30.21 in 10.0 mi WSW 5.8 mph - N/A   Clear